,,Stat6,,Stat2,,Stat8,,Stat9,,Stat10,,Wind1,,Wind1,
time,status,PA1M_AVG,status,PR1M_SUM,status,RH1M_AVG,status,SR1M_AVG,status,TA1M_AVG,status,W1dAve1m,status,W1sAve1m,
2003-11-29, 00:00:00,VALID,917.781,VALID,0,VALID,100,VALID,0.0169808,VALID,19.4074,VALID,23,VALID,0.625186,
2003-11-29, 00:01:00,VALID,917.764,VALID,0,VALID,100,VALID,0,VALID,19.4103,VALID,23,VALID,0.363567,
2003-11-29, 00:02:00,VALID,917.75,VALID,0,VALID,100,VALID,0.0169808,VALID,19.4136,VALID,23,VALID,0.0417259,
2003-11-29, 00:03:00,VALID,917.742,VALID,0,VALID,100,VALID,0.0339617,VALID,19.4004,VALID,23,VALID,0.260231,
2003-11-29, 00:04:00,VALID,917.747,VALID,0,VALID,100,VALID,0.0169808,VALID,19.3517,VALID,23,VALID,0.102515,
2003-11-29, 00:05:00,VALID,917.765,VALID,0,VALID,100,VALID,0.0339617,VALID,19.3303,VALID,23,VALID,0,
2003-11-29, 00:06:00,VALID,917.797,VALID,0,VALID,100,VALID,0.0169808,VALID,19.3008,VALID,23,VALID,0,
2003-11-29, 00:07:00,VALID,917.826,VALID,0,VALID,100,VALID,0.0339617,VALID,19.301,VALID,23,VALID,0,
2003-11-29, 00:08:00,VALID,917.846,VALID,0,VALID,100,VALID,0.0169808,VALID,19.3013,VALID,23,VALID,0.233842,
2003-11-29, 00:09:00,VALID,917.867,VALID,0,VALID,100,VALID,0,VALID,19.2844,VALID,21,VALID,0.178943,
2003-11-29, 00:10:00,VALID,917.865,VALID,0,VALID,100,VALID,0,VALID,19.2777,VALID,3,VALID,0.247917,
2003-11-29, 00:11:00,VALID,917.863,VALID,0,VALID,100,VALID,0,VALID,19.2717,VALID,3,VALID,0.100472,
2003-11-29, 00:12:00,VALID,917.855,VALID,0,VALID,100,VALID,0.0339617,VALID,19.2819,VALID,3,VALID,0.0301067,
2003-11-29, 00:13:00,VALID,917.858,VALID,0,VALID,100,VALID,0,VALID,19.2595,VALID,3,VALID,0.0216206,
2003-11-29, 00:14:00,VALID,917.858,VALID,0,VALID,100,VALID,0,VALID,19.2404,VALID,3,VALID,0.188244,
2003-11-29, 00:15:00,VALID,917.848,VALID,0,VALID,100,VALID,0,VALID,19.2173,VALID,3,VALID,0.17024,
2003-11-29, 00:16:00,VALID,917.86,VALID,0,VALID,100,VALID,0.0169808,VALID,19.2044,VALID,3,VALID,0,
2003-11-29, 00:17:00,VALID,917.865,VALID,0,VALID,100,VALID,0.0169808,VALID,19.1975,VALID,3,VALID,0,
2003-11-29, 00:18:00,VALID,917.884,VALID,0,VALID,100,VALID,-0.0169808,VALID,19.195,VALID,3,VALID,0,
2003-11-29, 00:19:00,VALID,917.897,VALID,0,VALID,100,VALID,0,VALID,19.2205,VALID,3,VALID,0.133956,
2003-11-29, 00:20:00,VALID,917.914,VALID,0,VALID,100,VALID,0,VALID,19.2166,VALID,3,VALID,0.164789,
2003-11-29, 00:21:00,VALID,917.925,VALID,0,VALID,100,VALID,0.0169808,VALID,19.2364,VALID,3,VALID,0.0835193,
2003-11-29, 00:22:00,VALID,917.934,VALID,0,VALID,100,VALID,0.0509425,VALID,19.2392,VALID,5,VALID,0.30506,
2003-11-29, 00:23:00,VALID,917.946,VALID,0,VALID,100,VALID,0.0339617,VALID,19.2335,VALID,76,VALID,0.514881,
2003-11-29, 00:24:00,VALID,917.946,VALID,0,VALID,100,VALID,0.0339617,VALID,19.2141,VALID,152,VALID,0.498666,
2003-11-29, 00:25:00,VALID,917.944,VALID,0,VALID,100,VALID,0.0169808,VALID,19.1714,VALID,170,VALID,0.4617,
2003-11-29, 00:26:00,VALID,917.943,VALID,0,VALID,100,VALID,0,VALID,19.1617,VALID,170,VALID,0.595348,
2003-11-29, 00:27:00,VALID,917.944,VALID,0,VALID,100,VALID,0.0339617,VALID,19.1458,VALID,165,VALID,0.450335,
2003-11-29, 00:28:00,VALID,917.945,VALID,0,VALID,100,VALID,0,VALID,19.146,VALID,161,VALID,0.47154,
2003-11-29, 00:29:00,VALID,917.941,VALID,0,VALID,100,VALID,0.0339617,VALID,19.1493,VALID,161,VALID,0.328316,
2003-11-29, 00:30:00,VALID,917.926,VALID,0,VALID,100,VALID,0.0339617,VALID,19.159,VALID,149,VALID,0.229611,
2003-11-29, 00:31:00,VALID,917.913,VALID,0,VALID,100,VALID,-0.0339617,VALID,19.1636,VALID,140,VALID,0.584449,
2003-11-29, 00:32:00,VALID,917.895,VALID,0,VALID,100,VALID,-0.0849042,VALID,19.1736,VALID,140,VALID,0.450267,
2003-11-29, 00:33:00,VALID,917.887,VALID,0,VALID,100,VALID,-0.0849042,VALID,19.1606,VALID,127,VALID,0.295632,
2003-11-29, 00:34:00,VALID,917.86,VALID,0,VALID,100,VALID,-0.0509425,VALID,19.1535,VALID,113,VALID,0.189174,
2003-11-29, 00:35:00,VALID,917.842,VALID,0,VALID,100,VALID,-0.0679233,VALID,19.1698,VALID,91,VALID,0.186435,
2003-11-29, 00:36:00,VALID,917.828,VALID,0,VALID,100,VALID,0,VALID,19.1656,VALID,91,VALID,0.00545058,
2003-11-29, 00:37:00,VALID,917.808,VALID,0,VALID,100,VALID,0.0509425,VALID,19.1716,VALID,81,VALID,0,
2003-11-29, 00:38:00,VALID,917.794,VALID,0,VALID,100,VALID,0.0849042,VALID,19.1848,VALID,33,VALID,0.385417,
2003-11-29, 00:39:00,VALID,917.795,VALID,0,VALID,100,VALID,0.0339617,VALID,19.1781,VALID,27,VALID,0.33559,
2003-11-29, 00:40:00,VALID,917.781,VALID,0,VALID,100,VALID,0.0509425,VALID,19.1975,VALID,27,VALID,0.254084,
2003-11-29, 00:41:00,VALID,917.786,VALID,0,VALID,100,VALID,0.0849042,VALID,19.2235,VALID,27,VALID,0.0078125,
2003-11-29, 00:42:00,VALID,917.775,VALID,0,VALID,100,VALID,0.0509425,VALID,19.2166,VALID,27,VALID,0.017663,
2003-11-29, 00:43:00,VALID,917.767,VALID,0,VALID,100,VALID,0.0509425,VALID,19.2163,VALID,27,VALID,0.0173399,
2003-11-29, 00:44:00,VALID,917.758,VALID,0,VALID,100,VALID,0.0339617,VALID,19.2397,VALID,27,VALID,0,
2003-11-29, 00:45:00,VALID,917.753,VALID,0,VALID,100,VALID,0.0169808,VALID,19.2496,VALID,27,VALID,0.00106534,
2003-11-29, 00:46:00,VALID,917.744,VALID,0,VALID,100,VALID,0.0339617,VALID,19.2364,VALID,27,VALID,0,
2003-11-29, 00:47:00,VALID,917.756,VALID,0,VALID,100,VALID,0.0509425,VALID,19.2134,VALID,27,VALID,0.059375,
2003-11-29, 00:48:00,VALID,917.746,VALID,0,VALID,100,VALID,0.0849042,VALID,19.2067,VALID,100,VALID,0.282081,
2003-11-29, 00:49:00,VALID,917.747,VALID,0,VALID,100,VALID,0.0679233,VALID,19.2069,VALID,115,VALID,0.17133,
2003-11-29, 00:50:00,VALID,917.741,VALID,0,VALID,100,VALID,0,VALID,19.2004,VALID,147,VALID,0.432235,
2003-11-29, 00:51:00,VALID,917.74,VALID,0,VALID,100,VALID,-0.0169808,VALID,19.2051,VALID,157,VALID,0.109947,
2003-11-29, 00:52:00,VALID,917.734,VALID,0,VALID,100,VALID,-0.0679233,VALID,19.2056,VALID,157,VALID,0.116655,
2003-11-29, 00:53:00,VALID,917.735,VALID,0,VALID,100,VALID,-0.0509425,VALID,19.218,VALID,158,VALID,0.1746,
2003-11-29, 00:54:00,VALID,917.726,VALID,0,VALID,100,VALID,-0.0509425,VALID,19.2404,VALID,190,VALID,0.275856,
2003-11-29, 00:55:00,VALID,917.711,VALID,0,VALID,100,VALID,-0.0509425,VALID,19.2441,VALID,188,VALID,0.277257,
2003-11-29, 00:56:00,VALID,917.697,VALID,0,VALID,100,VALID,-0.0509425,VALID,19.228,VALID,161,VALID,0.405297,
2003-11-29, 00:57:00,VALID,917.692,VALID,0,VALID,100,VALID,-0.0169808,VALID,19.2178,VALID,161,VALID,0.206287,
2003-11-29, 00:58:00,VALID,917.694,VALID,0,VALID,100,VALID,-0.0509425,VALID,19.2215,VALID,176,VALID,0.182639,
2003-11-29, 00:59:00,VALID,917.685,VALID,0,VALID,100,VALID,-0.0679233,VALID,19.221,VALID,176,VALID,0.114211,
2003-11-29, 01:00:00,VALID,917.674,VALID,0,VALID,100,VALID,-0.0339617,VALID,19.228,VALID,176,VALID,0.119368,
2003-11-29, 01:01:00,VALID,917.651,VALID,0,VALID,100,VALID,-0.0509425,VALID,19.2245,VALID,176,VALID,0,
2003-11-29, 01:02:00,VALID,917.646,VALID,0,VALID,100,VALID,-0.0509425,VALID,19.2245,VALID,176,VALID,0.272892,
2003-11-29, 01:03:00,VALID,917.643,VALID,0,VALID,100,VALID,-0.0509425,VALID,19.2116,VALID,176,VALID,0.115473,
2003-11-29, 01:04:00,VALID,917.628,VALID,0,VALID,100,VALID,-0.0339617,VALID,19.2081,VALID,176,VALID,0.210751,
2003-11-29, 01:05:00,VALID,917.616,VALID,0,VALID,100,VALID,0,VALID,19.2185,VALID,176,VALID,0.225654,
2003-11-29, 01:06:00,VALID,917.598,VALID,0,VALID,100,VALID,-0.0169808,VALID,19.1984,VALID,154,VALID,0.287574,
2003-11-29, 01:07:00,VALID,917.589,VALID,0,VALID,100,VALID,-0.0339617,VALID,19.1927,VALID,140,VALID,0.291726,
2003-11-29, 01:08:00,VALID,917.581,VALID,0,VALID,100,VALID,-0.0339617,VALID,19.1855,VALID,94,VALID,0.397347,
2003-11-29, 01:09:00,VALID,917.568,VALID,0,VALID,100,VALID,-0.0509425,VALID,19.1922,VALID,66,VALID,0.562682,
2003-11-29, 01:10:00,VALID,917.557,VALID,0,VALID,100,VALID,-0.0509425,VALID,19.2054,VALID,66,VALID,0.473189,
2003-11-29, 01:11:00,VALID,917.545,VALID,0,VALID,100,VALID,-0.0509425,VALID,19.1865,VALID,66,VALID,0.313802,
2003-11-29, 01:12:00,VALID,917.526,VALID,0,VALID,100,VALID,-0.0339617,VALID,19.1728,VALID,66,VALID,0.182106,
2003-11-29, 01:13:00,VALID,917.5,VALID,0,VALID,100,VALID,-0.0339617,VALID,19.1696,VALID,66,VALID,0.236607,
2003-11-29, 01:14:00,VALID,917.487,VALID,0,VALID,100,VALID,-0.0679233,VALID,19.1703,VALID,67,VALID,0.26053,
2003-11-29, 01:15:00,VALID,917.473,VALID,0,VALID,100,VALID,-0.0339617,VALID,19.1696,VALID,67,VALID,0.316493,
2003-11-29, 01:16:00,VALID,917.449,VALID,0,VALID,100,VALID,-0.0169808,VALID,19.1698,VALID,77,VALID,0.371466,
2003-11-29, 01:17:00,VALID,917.431,VALID,0,VALID,100,VALID,-0.0509425,VALID,19.1731,VALID,100,VALID,0.294389,
2003-11-29, 01:18:00,VALID,917.417,VALID,0,VALID,100,VALID,-0.0509425,VALID,19.1602,VALID,100,VALID,0.174183,
2003-11-29, 01:19:00,VALID,917.411,VALID,0,VALID,100,VALID,-0.0339617,VALID,19.1569,VALID,100,VALID,0.420387,
2003-11-29, 01:20:00,VALID,917.389,VALID,0,VALID,100,VALID,-0.0509425,VALID,19.1438,VALID,100,VALID,0.269709,
2003-11-29, 01:21:00,VALID,917.381,VALID,0,VALID,100,VALID,-0.0679233,VALID,19.1341,VALID,100,VALID,0.298438,
2003-11-29, 01:22:00,VALID,917.381,VALID,0,VALID,100,VALID,-0.0849042,VALID,19.1445,VALID,100,VALID,0.233631,
2003-11-29, 01:23:00,VALID,917.36,VALID,0,VALID,100,VALID,-0.0339617,VALID,19.141,VALID,108,VALID,0.419271,
2003-11-29, 01:24:00,VALID,917.344,VALID,0,VALID,100,VALID,-0.0679233,VALID,19.144,VALID,120,VALID,0.442073,
2003-11-29, 01:25:00,VALID,917.332,VALID,0,VALID,100,VALID,-0.0339617,VALID,19.1313,VALID,128,VALID,0.457031,
2003-11-29, 01:26:00,VALID,917.327,VALID,0,VALID,100,VALID,-0.0509425,VALID,19.1376,VALID,136,VALID,0.560594,
2003-11-29, 01:27:00,VALID,917.319,VALID,0,VALID,100,VALID,-0.0849042,VALID,19.1281,VALID,139,VALID,0.232227,
2003-11-29, 01:28:00,VALID,917.309,VALID,0,VALID,100,VALID,-0.0679233,VALID,19.1408,VALID,139,VALID,0.0307049,
2003-11-29, 01:29:00,VALID,917.294,VALID,0,VALID,100,VALID,-0.0849042,VALID,19.1309,VALID,139,VALID,0.112326,
2003-11-29, 01:30:00,VALID,917.303,VALID,0,VALID,100,VALID,-0.0679233,VALID,19.1244,VALID,139,VALID,0.103016,
2003-11-29, 01:31:00,VALID,917.289,VALID,0,VALID,100,VALID,-0.0509425,VALID,19.1179,VALID,139,VALID,0,
2003-11-29, 01:32:00,VALID,917.273,VALID,0.2,VALID,100,VALID,-0.0339617,VALID,19.1115,VALID,137,VALID,0.144531,
2003-11-29, 01:33:00,VALID,917.272,VALID,0,VALID,100,VALID,-0.0339617,VALID,19.1122,VALID,135,VALID,0.423633,
2003-11-29, 01:34:00,VALID,917.257,VALID,0,VALID,100,VALID,-0.0679233,VALID,19.0923,VALID,136,VALID,0.630504,
2003-11-29, 01:35:00,VALID,917.253,VALID,0,VALID,100,VALID,-0.0339617,VALID,19.073,VALID,120,VALID,0.553757,
2003-11-29, 01:36:00,VALID,917.243,VALID,0,VALID,100,VALID,-0.0679233,VALID,19.0603,VALID,117,VALID,0.392149,
2003-11-29, 01:37:00,VALID,917.233,VALID,0,VALID,100,VALID,-0.0849042,VALID,19.0538,VALID,119,VALID,0.250178,
2003-11-29, 01:38:00,VALID,917.223,VALID,0,VALID,100,VALID,-0.0339617,VALID,19.0538,VALID,121,VALID,0.519792,
2003-11-29, 01:39:00,VALID,917.205,VALID,0,VALID,100,VALID,-0.0339617,VALID,19.0538,VALID,126,VALID,0.702762,
2003-11-29, 01:40:00,VALID,917.186,VALID,0,VALID,100,VALID,-0.0509425,VALID,19.0372,VALID,105,VALID,0.425967,
2003-11-29, 01:41:00,VALID,917.177,VALID,0,VALID,100,VALID,-0.0509425,VALID,19.0471,VALID,73,VALID,0.472656,
2003-11-29, 01:42:00,VALID,917.169,VALID,0,VALID,100,VALID,-0.0509425,VALID,19.0377,VALID,87,VALID,0.225675,
2003-11-29, 01:43:00,VALID,917.16,VALID,0,VALID,100,VALID,-0.0339617,VALID,19.0342,VALID,87,VALID,0.242374,
2003-11-29, 01:44:00,VALID,917.159,VALID,0,VALID,100,VALID,-0.0339617,VALID,19.0379,VALID,87,VALID,0.185902,
2003-11-29, 01:45:00,VALID,917.136,VALID,0,VALID,100,VALID,-0.0339617,VALID,19.0278,VALID,97,VALID,0.412153,
2003-11-29, 01:46:00,VALID,917.134,VALID,0,VALID,100,VALID,-0.0509425,VALID,19.0441,VALID,119,VALID,0.590234,
2003-11-29, 01:47:00,VALID,917.125,VALID,0,VALID,100,VALID,-0.0169808,VALID,19.0541,VALID,128,VALID,0.685902,
2003-11-29, 01:48:00,VALID,917.111,VALID,0,VALID,100,VALID,-0.0339617,VALID,19.0308,VALID,128,VALID,0.639695,
2003-11-29, 01:49:00,VALID,917.104,VALID,0,VALID,100,VALID,-0.0679233,VALID,19.0275,VALID,129,VALID,0.614329,
2003-11-29, 01:50:00,VALID,917.096,VALID,0,VALID,100,VALID,-0.0509425,VALID,19.0404,VALID,128,VALID,0.386446,
2003-11-29, 01:51:00,VALID,917.081,VALID,0,VALID,100,VALID,-0.0509425,VALID,19.0476,VALID,128,VALID,0.146205,
2003-11-29, 01:52:00,VALID,917.072,VALID,0,VALID,100,VALID,-0.0679233,VALID,19.0409,VALID,128,VALID,0.053125,
2003-11-29, 01:53:00,VALID,917.066,VALID,0,VALID,100,VALID,-0.0509425,VALID,19.0446,VALID,128,VALID,0.00327035,
2003-11-29, 01:54:00,VALID,917.047,VALID,0,VALID,100,VALID,-0.0509425,VALID,19.0241,VALID,128,VALID,0.0453869,
2003-11-29, 01:55:00,VALID,917.033,VALID,0,VALID,100,VALID,-0.0339617,VALID,19.0241,VALID,128,VALID,0.399182,
2003-11-29, 01:56:00,VALID,917.018,VALID,0,VALID,100,VALID,-0.0339617,VALID,19.0084,VALID,119,VALID,0.528125,
2003-11-29, 01:57:00,VALID,917.025,VALID,0,VALID,100,VALID,-0.0679233,VALID,18.9952,VALID,112,VALID,0.556504,
2003-11-29, 01:58:00,VALID,917.013,VALID,0,VALID,100,VALID,-0.0679233,VALID,18.9997,VALID,112,VALID,0.520647,
2003-11-29, 01:59:00,VALID,917.005,VALID,0,VALID,100,VALID,-0.0679233,VALID,18.986,VALID,112,VALID,0.467969,
2003-11-29, 02:00:00,VALID,916.998,VALID,0.2,VALID,100,VALID,-0.0849042,VALID,18.9959,VALID,112,VALID,0.236979,
2003-11-29, 02:01:00,VALID,916.99,VALID,0,VALID,100,VALID,-0.0509425,VALID,18.989,VALID,112,VALID,0.428199,
2003-11-29, 02:02:00,VALID,916.982,VALID,0,VALID,100,VALID,-0.0169808,VALID,18.9724,VALID,112,VALID,0.417878,
2003-11-29, 02:03:00,VALID,916.979,VALID,0,VALID,100,VALID,-0.0169808,VALID,18.9863,VALID,112,VALID,0.419744,
2003-11-29, 02:04:00,VALID,916.972,VALID,0,VALID,100,VALID,-0.0509425,VALID,18.9662,VALID,112,VALID,0.240327,
2003-11-29, 02:05:00,VALID,916.956,VALID,0,VALID,100,VALID,-0.0509425,VALID,18.9731,VALID,116,VALID,0.327035,
2003-11-29, 02:06:00,VALID,916.936,VALID,0,VALID,100,VALID,-0.0169808,VALID,18.9692,VALID,114,VALID,0.800037,
2003-11-29, 02:07:00,VALID,916.924,VALID,0,VALID,100,VALID,0.0169808,VALID,18.9523,VALID,111,VALID,0.824219,
2003-11-29, 02:08:00,VALID,916.899,VALID,0,VALID,100,VALID,0.0169808,VALID,18.9525,VALID,111,VALID,0.694531,
2003-11-29, 02:09:00,VALID,916.89,VALID,0,VALID,100,VALID,0.0339617,VALID,18.9394,VALID,108,VALID,0.422256,
2003-11-29, 02:10:00,VALID,916.886,VALID,0,VALID,100,VALID,0,VALID,18.9431,VALID,113,VALID,0.386347,
2003-11-29, 02:11:00,VALID,916.873,VALID,0,VALID,100,VALID,0.0169808,VALID,18.9429,VALID,123,VALID,0.384766,
2003-11-29, 02:12:00,VALID,916.872,VALID,0,VALID,100,VALID,0,VALID,18.9525,VALID,121,VALID,0.131836,
2003-11-29, 02:13:00,VALID,916.865,VALID,0,VALID,100,VALID,0,VALID,18.9625,VALID,114,VALID,0.539063,
2003-11-29, 02:14:00,VALID,916.854,VALID,0,VALID,100,VALID,0,VALID,18.9426,VALID,107,VALID,0.583984,
2003-11-29, 02:15:00,VALID,916.854,VALID,0,VALID,100,VALID,0.0169808,VALID,18.9592,VALID,107,VALID,0.582919,
2003-11-29, 02:16:00,VALID,916.854,VALID,0.2,VALID,100,VALID,0.0339617,VALID,18.9558,VALID,104,VALID,0.490282,
2003-11-29, 02:17:00,VALID,916.862,VALID,0,VALID,100,VALID,0.0169808,VALID,18.9655,VALID,88,VALID,0.410069,
2003-11-29, 02:18:00,VALID,916.849,VALID,0,VALID,100,VALID,0.0169808,VALID,18.9555,VALID,81,VALID,0.531795,
2003-11-29, 02:19:00,VALID,916.851,VALID,0,VALID,100,VALID,0.0169808,VALID,18.965,VALID,80,VALID,0.387173,
2003-11-29, 02:20:00,VALID,916.849,VALID,0,VALID,100,VALID,0.0339617,VALID,18.9486,VALID,80,VALID,0.403993,
2003-11-29, 02:21:00,VALID,916.844,VALID,0,VALID,100,VALID,-0.0509425,VALID,18.9436,VALID,80,VALID,0.42351,
2003-11-29, 02:22:00,VALID,916.841,VALID,0,VALID,100,VALID,-0.0849042,VALID,18.9475,VALID,80,VALID,0.240945,
2003-11-29, 02:23:00,VALID,916.84,VALID,0,VALID,100,VALID,-0.101885,VALID,18.9373,VALID,83,VALID,0.350419,
2003-11-29, 02:24:00,VALID,916.844,VALID,0,VALID,100,VALID,-0.0509425,VALID,18.9537,VALID,100,VALID,0.547256,
2003-11-29, 02:25:00,VALID,916.84,VALID,0,VALID,100,VALID,-0.0679233,VALID,18.9503,VALID,101,VALID,0.338246,
2003-11-29, 02:26:00,VALID,916.838,VALID,0,VALID,100,VALID,-0.0679233,VALID,18.9572,VALID,101,VALID,0.292683,
2003-11-29, 02:27:00,VALID,916.82,VALID,0.2,VALID,100,VALID,-0.101885,VALID,18.9574,VALID,101,VALID,0.277071,
2003-11-29, 02:28:00,VALID,916.803,VALID,0,VALID,100,VALID,-0.101885,VALID,18.9639,VALID,101,VALID,0.0835193,
2003-11-29, 02:29:00,VALID,916.8,VALID,0,VALID,100,VALID,-0.0679233,VALID,18.9674,VALID,101,VALID,0.269985,
2003-11-29, 02:30:00,VALID,916.787,VALID,0,VALID,100,VALID,-0.0849042,VALID,18.9602,VALID,106,VALID,0.634588,
2003-11-29, 02:31:00,VALID,916.78,VALID,0,VALID,100,VALID,-0.101885,VALID,18.957,VALID,113,VALID,0.547554,
2003-11-29, 02:32:00,VALID,916.785,VALID,0,VALID,100,VALID,-0.0509425,VALID,18.957,VALID,113,VALID,0.557351,
2003-11-29, 02:33:00,VALID,916.781,VALID,0,VALID,100,VALID,-0.0679233,VALID,18.9736,VALID,78,VALID,0.379092,
2003-11-29, 02:34:00,VALID,916.781,VALID,0,VALID,100,VALID,-0.0849042,VALID,18.9835,VALID,69,VALID,0.287695,
2003-11-29, 02:35:00,VALID,916.768,VALID,0,VALID,100,VALID,-0.0509425,VALID,18.9696,VALID,69,VALID,0.311955,
2003-11-29, 02:36:00,VALID,916.762,VALID,0,VALID,100,VALID,-0.0679233,VALID,18.9763,VALID,69,VALID,0.352121,
2003-11-29, 02:37:00,VALID,916.752,VALID,0,VALID,100,VALID,-0.0679233,VALID,18.9666,VALID,69,VALID,0.429688,
2003-11-29, 02:38:00,VALID,916.745,VALID,0,VALID,100,VALID,-0.0849042,VALID,18.9639,VALID,88,VALID,0.621003,
2003-11-29, 02:39:00,VALID,916.746,VALID,0,VALID,100,VALID,-0.0679233,VALID,18.9637,VALID,76,VALID,0.691883,
2003-11-29, 02:40:00,VALID,916.722,VALID,0,VALID,100,VALID,-0.0849042,VALID,18.9669,VALID,78,VALID,0.493712,
2003-11-29, 02:41:00,VALID,916.708,VALID,0,VALID,100,VALID,-0.101885,VALID,18.9634,VALID,88,VALID,0.567454,
2003-11-29, 02:42:00,VALID,916.689,VALID,0.2,VALID,100,VALID,-0.0849042,VALID,18.9607,VALID,94,VALID,0.47247,
2003-11-29, 02:43:00,VALID,916.669,VALID,0,VALID,100,VALID,-0.101885,VALID,18.9639,VALID,91,VALID,0.235795,
2003-11-29, 02:44:00,VALID,916.654,VALID,0,VALID,100,VALID,-0.0849042,VALID,18.9604,VALID,91,VALID,0.353423,
2003-11-29, 02:45:00,VALID,916.636,VALID,0,VALID,100,VALID,-0.0679233,VALID,18.954,VALID,91,VALID,0.258743,
2003-11-29, 02:46:00,VALID,916.628,VALID,0,VALID,100,VALID,-0.0339617,VALID,18.9507,VALID,91,VALID,0.156783,
2003-11-29, 02:47:00,VALID,916.619,VALID,0,VALID,100,VALID,-0.0849042,VALID,18.954,VALID,90,VALID,0.375572,
2003-11-29, 02:48:00,VALID,916.614,VALID,0,VALID,100,VALID,-0.0509425,VALID,18.9706,VALID,88,VALID,0.363467,
2003-11-29, 02:49:00,VALID,916.615,VALID,0,VALID,100,VALID,-0.0679233,VALID,18.9505,VALID,88,VALID,0.424055,
2003-11-29, 02:50:00,VALID,916.629,VALID,0,VALID,100,VALID,-0.0849042,VALID,18.9351,VALID,88,VALID,0.36849,
2003-11-29, 02:51:00,VALID,916.625,VALID,0,VALID,100,VALID,-0.0339617,VALID,18.9378,VALID,88,VALID,0.324023,
2003-11-29, 02:52:00,VALID,916.63,VALID,0,VALID,100,VALID,0.0169808,VALID,18.914,VALID,88,VALID,0.400073,
2003-11-29, 02:53:00,VALID,916.617,VALID,0,VALID,100,VALID,0.0169808,VALID,18.9073,VALID,88,VALID,0.457127,
2003-11-29, 02:54:00,VALID,916.617,VALID,0,VALID,100,VALID,0.0169808,VALID,18.9138,VALID,103,VALID,0.616461,
2003-11-29, 02:55:00,VALID,916.616,VALID,0,VALID,100,VALID,0,VALID,18.9207,VALID,106,VALID,0.457849,
2003-11-29, 02:56:00,VALID,916.604,VALID,0,VALID,100,VALID,0.0169808,VALID,18.9106,VALID,106,VALID,0.330543,
2003-11-29, 02:57:00,VALID,916.591,VALID,0,VALID,100,VALID,0.0169808,VALID,18.9078,VALID,106,VALID,0.280887,
2003-11-29, 02:58:00,VALID,916.566,VALID,0,VALID,100,VALID,0.0169808,VALID,18.9143,VALID,106,VALID,0.223586,
2003-11-29, 02:59:00,VALID,916.569,VALID,0,VALID,100,VALID,0.0169808,VALID,18.8939,VALID,106,VALID,0.27381,
2003-11-29, 03:00:00,VALID,916.556,VALID,0,VALID,100,VALID,0,VALID,18.9076,VALID,106,VALID,0.223828,
2003-11-29, 03:01:00,VALID,916.542,VALID,0,VALID,100,VALID,0.0169808,VALID,18.8974,VALID,106,VALID,0.358103,
2003-11-29, 03:02:00,VALID,916.534,VALID,0,VALID,100,VALID,0.0169808,VALID,18.9011,VALID,122,VALID,0.398438,
2003-11-29, 03:03:00,VALID,916.523,VALID,0,VALID,100,VALID,0,VALID,18.8976,VALID,149,VALID,0.436357,
2003-11-29, 03:04:00,VALID,916.514,VALID,0.2,VALID,100,VALID,0,VALID,18.9147,VALID,131,VALID,0.562314,
2003-11-29, 03:05:00,VALID,916.504,VALID,0,VALID,100,VALID,0,VALID,18.891,VALID,125,VALID,0.640053,
2003-11-29, 03:06:00,VALID,916.5,VALID,0,VALID,100,VALID,0.0169808,VALID,18.8914,VALID,119,VALID,0.373001,
2003-11-29, 03:07:00,VALID,916.499,VALID,0,VALID,100,VALID,0.0169808,VALID,18.8944,VALID,110,VALID,0.470203,
2003-11-29, 03:08:00,VALID,916.492,VALID,0,VALID,100,VALID,0,VALID,18.9009,VALID,101,VALID,0.544331,
2003-11-29, 03:09:07,VALID,916.49,VALID,0,VALID,100,VALID,0.0169808,VALID,18.9076,VALID,101,VALID,0.50549,
2003-11-29, 03:10:00,VALID,916.488,VALID,0,VALID,100,VALID,0.0169808,VALID,18.9076,VALID,101,VALID,0.379084,
2003-11-29, 03:11:00,VALID,916.483,VALID,0,VALID,100,VALID,0,VALID,18.891,VALID,103,VALID,0.449751,
2003-11-29, 03:12:00,VALID,916.485,VALID,0,VALID,100,VALID,0.0169808,VALID,18.9041,VALID,103,VALID,0.354106,
2003-11-29, 03:13:00,VALID,916.489,VALID,0,VALID,100,VALID,0.0339617,VALID,18.9039,VALID,115,VALID,0.266681,
2003-11-29, 03:14:00,VALID,916.469,VALID,0,VALID,100,VALID,0,VALID,18.911,VALID,136,VALID,0.285792,
2003-11-29, 03:15:00,VALID,916.472,VALID,0,VALID,100,VALID,0,VALID,18.9175,VALID,136,VALID,0.327237,
2003-11-29, 03:16:00,VALID,916.464,VALID,0,VALID,100,VALID,0,VALID,18.921,VALID,136,VALID,0.287109,
2003-11-29, 03:17:00,VALID,916.47,VALID,0,VALID,100,VALID,-0.0169808,VALID,18.9143,VALID,136,VALID,0.369913,
2003-11-29, 03:18:00,VALID,916.466,VALID,0,VALID,100,VALID,0.0169808,VALID,18.9078,VALID,136,VALID,0.313616,
2003-11-29, 03:19:00,VALID,916.454,VALID,0,VALID,100,VALID,-0.0169808,VALID,18.9244,VALID,136,VALID,0.347834,
2003-11-29, 03:20:00,VALID,916.454,VALID,0,VALID,100,VALID,-0.0169808,VALID,18.9237,VALID,136,VALID,0.295058,
2003-11-29, 03:21:00,VALID,916.452,VALID,0,VALID,100,VALID,0,VALID,18.914,VALID,136,VALID,0.370998,
2003-11-29, 03:22:00,VALID,916.451,VALID,0,VALID,100,VALID,-0.0169808,VALID,18.9043,VALID,136,VALID,0.284334,
2003-11-29, 03:23:00,VALID,916.451,VALID,0,VALID,100,VALID,-0.0169808,VALID,18.9009,VALID,136,VALID,0.298651,
2003-11-29, 03:24:00,VALID,916.453,VALID,0,VALID,100,VALID,0,VALID,18.8877,VALID,136,VALID,0.338423,
2003-11-29, 03:25:00,VALID,916.451,VALID,0,VALID,100,VALID,0.0169808,VALID,18.8981,VALID,136,VALID,0.491616,
2003-11-29, 03:26:00,VALID,916.453,VALID,0,VALID,100,VALID,0,VALID,18.8984,VALID,136,VALID,0.351944,
2003-11-29, 03:27:00,VALID,916.458,VALID,0,VALID,100,VALID,0.0169808,VALID,18.8976,VALID,136,VALID,0.469122,
2003-11-29, 03:28:00,VALID,916.455,VALID,0,VALID,100,VALID,0.0169808,VALID,18.8884,VALID,134,VALID,0.215376,
2003-11-29, 03:29:00,VALID,916.461,VALID,0,VALID,100,VALID,0,VALID,18.8882,VALID,133,VALID,0.527539,
2003-11-29, 03:30:00,VALID,916.476,VALID,0,VALID,100,VALID,0.0169808,VALID,18.8887,VALID,133,VALID,0.586338,
2003-11-29, 03:31:00,VALID,916.466,VALID,0,VALID,100,VALID,0,VALID,18.8988,VALID,133,VALID,0.597098,
2003-11-29, 03:32:00,VALID,916.475,VALID,0,VALID,100,VALID,0,VALID,18.8785,VALID,133,VALID,0.526278,
2003-11-29, 03:33:00,VALID,916.469,VALID,0,VALID,100,VALID,0.0169808,VALID,18.8686,VALID,131,VALID,0.447443,
2003-11-29, 03:34:00,VALID,916.458,VALID,0.2,VALID,100,VALID,0,VALID,18.8723,VALID,130,VALID,0.353795,
2003-11-29, 03:35:00,VALID,916.455,VALID,0,VALID,100,VALID,0.0169808,VALID,18.8557,VALID,127,VALID,0.496003,
2003-11-29, 03:36:00,VALID,916.455,VALID,0,VALID,100,VALID,0,VALID,18.8628,VALID,127,VALID,0.363991,
2003-11-29, 03:37:00,VALID,916.459,VALID,0,VALID,100,VALID,0,VALID,18.8529,VALID,127,VALID,0.547408,
2003-11-29, 03:38:00,VALID,916.461,VALID,0,VALID,100,VALID,0,VALID,18.8596,VALID,126,VALID,0.307706,
2003-11-29, 03:39:00,VALID,916.458,VALID,0,VALID,100,VALID,0.0169808,VALID,18.8561,VALID,126,VALID,0.338542,
2003-11-29, 03:40:00,VALID,916.452,VALID,0,VALID,100,VALID,0.0169808,VALID,18.8626,VALID,127,VALID,0.114453,
2003-11-29, 03:41:00,VALID,916.46,VALID,0,VALID,100,VALID,0.0169808,VALID,18.8758,VALID,127,VALID,0.000585938,